Tracking 30995 objects as of 5-Jul-2025
HD Live streaming from Space Station
objects crossing your sky now

TIANHUI 5C

Track TIANHUI 5C now!
10-day predictions


NORAD ID: 60211
Int'l Code: 2024-127A
Perigee: 611.6 km
Apogee: 613.7 km
Inclination: 97.8 °
Period: 96.8 minutes
Semi major axis: 6983 km
RCS: Unknown
Launch date: July 4, 2024
Source: People's Republic of China (PRC)
Launch site: Taiyaun Space Center, China (TSC)
Your satellite tracking list
Your tracking list is empty




NASA's NSSDC Master Catalog

Two Line Element Set (TLE):
1 60211U 24126A   25185.87977109  .00000364  00000-0  46019-4 0  9991
2 60211  97.8210 193.4222 0001556  90.7186 269.4208 14.87579282 54250
Source of the keplerian elements: AFSPC